Regional Weather Roundup
Issued by NWS

Home | Current Version | Previous Version | Graphics & Text | Print | Product List | Glossary On
Versions: 1 2 3 4 5 6 7 8 9 10 11 12 13 14 15 16 17 18 19 20 21 22 23 24 25 26 27 28 29 30 31 32 33 34 35 36 37 38 39 40 41 42 43 44 45 46 47 48 49 50
000
ASUS45 KABQ 011301
RWRNM
WEATHER ROUNDUP FOR NEW MEXICO
NATIONAL WEATHER SERVICE ALBUQUERQUE NM
700 AM MDT FRI AUG 01 2014

NOTE: "FAIR" MEANS FEW OR NO CLOUDS BELOW 12,000 FEET AGL WITH NO
       SIGNIFICANT WEATHER OR OBSTRUCTIONS TO VISION.

      THIS PRODUCT IS RELEASED AS TWO VERSIONS.  ONE VERSION NEAR
      THE TOP OF THE HOUR CONTAINING PRELIMINARY DATA FROM ALBUQUERQUE
      AND OTHER STATIONS.  A FINAL VERSION WITH ADDITIONAL DATA IS
      ISSUED ABOUT 10 MINUTES AFTER THE HOUR.

NMZ501-503-504-510>518-011400-
NORTHWEST PLATEAU/NORTHCENTRAL MOUNTAINS

CITY           SKY/WX    TMP DP  RH WIND       PRES   REMARKS
FARMINGTON     PTCLDY    64  54  69 S5        30.24R
LOS ALAMOS     CLOUDY    55  51  87 SW5       30.40R
SANTA FE       CLOUDY    57  52  83 CALM      30.34R
TAOS             N/A     52  48  87 CALM      30.40R
ANGEL FIRE     CLOUDY    49  47  93 SE3       30.47S

$$
NMZ402-403-502-505>509-011400-
WESTCENTRAL MOUNTAINS/SOUTHWEST MOUNTAINS

CITY           SKY/WX    TMP DP  RH WIND       PRES   REMARKS
GALLUP         CLOUDY    59  54  83 CALM      30.32R

$$
NMZ407-409-411-412-011400-
SOUTHERN DESERTS

CITY           SKY/WX    TMP DP  RH WIND       PRES   REMARKS
LORDSBURG      CLOUDY    66  61  82 SE12      30.20F
DEMING         LGT RAIN  65  63  93 E5        30.21F
LAS CRUCES     CLOUDY    64  63  96 W5        30.22S
HOLLOMAN AFB   CLOUDY    64  64 100 N6        30.20R
T OR C         CLOUDY    63  61  93 N3        30.23S

$$
NMZ519>523-011400-
CENTRAL VALLEYS/CENTRAL HIGHLANDS

CITY           SKY/WX    TMP DP  RH WIND       PRES   REMARKS
ALBUQUERQUE    PTCLDY    63  55  75 N7        30.29R
DOUBLE EAGLE   MOCLDY    57  55  94 N8        30.32R
CLINES CORNERS MOCLDY    55  54  96 E8        30.35F
BELEN          CLOUDY    60  58  94 CALM      30.28S
SOCORRO        FAIR      62  61  96 N3        30.27R

$$
NMZ524>526-539-540-011400-
SOUTHCENTRAL MOUNTAINS

CITY           SKY/WX    TMP DP  RH WIND       PRES   REMARKS
RUIDOSO        NOT AVBL

$$
NMZ527>531-011400-
NORTHEAST HIGHLANDS/NORTHEAST PLAINS

CITY           SKY/WX    TMP DP  RH WIND       PRES   REMARKS
LAS VEGAS      CLOUDY    52  50  93 CALM      30.37F
RATON          CLOUDY    58  55  90 NE6       30.34R
CLAYTON        CLOUDY    65  55  70 W6        30.28R

$$
NMZ532>537-011400-
EASTCENTRAL PLAINS

CITY           SKY/WX    TMP DP  RH WIND       PRES   REMARKS
TUCUMCARI      CLOUDY    68  62  81 SW3       30.23R
CANNON AFB     CLOUDY    64  58  79 W3        30.25R
CLOVIS AIRPORT NOT AVBL

$$
NMZ028-029-538-011400-
SOUTHEAST PLAINS

CITY           SKY/WX    TMP DP  RH WIND       PRES   REMARKS
ROSWELL        CLOUDY    67  63  87 N5        30.20R
ARTESIA        CLOUDY    66  66 100 NW5       30.20R
CARLSBAD       CLOUDY    70  64  81 NW5       30.17R
HOBBS          MOCLDY    66  59  77 E7        30.21R


$$


USA.gov is the U.S. government's official web portal to all federal, state and local government web resources and services.